Torna al catalogo

STARLINK-11422

AttivoComunicazioniVLEO
NORAD 61944·PAYLOAD·🇺🇸 United States

Lanciato Nov 14, 2024 da Vandenberg Space Force Base

Loading…

Prossimi Passaggi (prossime 24 ore)

TLE

AggiornatoSource: CelesTrak SupGP

Epoca: Sep 15, 2026, 03:26 UTC

1 61944C 24209F   26258.14354167  .00070895  00000+0  58377-3 0  2584
2 61944  53.1568 157.5514 0001231  82.1697 172.1598 15.69682679    15

Traccia STARLINK-11422 in tempo reale con AllMySat

Download on the App Store